Home   Weather   Fairfield   Past weeks
Flag for USA

Past Weather in Fairfield, Tennessee, USA — Yesterday and Last 2 Weeks

Now
60 °F

Passing clouds.


Feels Like: 60 °F
Forecast: 57 / 41 °F
Wind: 5 mph from North

Location: McGhee Tyson Airport

Current Time: Dec 7, 2019 at 4:50:29 pm

Latest Report: Dec 7, 2019 at 3:53 pm


Visibility: 10 mi

Pressure: 30.23 "Hg

Humidity: 44%

Dew Point: 38 °F

Location of FairfieldLocation

Past Weather in Fairfield — Graph

°F

Fairfield Temperature Yesterday

Maximum temperature yesterday: 52 °F (at 2:53 pm)
Minimum temperature yesterday: 39 °F (at 12:53 am)
Average temperature yesterday: 46 °F

High & Low Weather Summary for the Past Weeks

 TemperatureHumidityPressure
High67 °F (Nov 27, 10:53 am)100% (Nov 23, 9:03 am)30.40 "Hg (Nov 23, 9:03 am)
Low30 °F (Nov 25, 3:17 am)20% (Nov 27, 1:53 pm)29.50 "Hg (Dec 1, 1:53 pm)
Average47 °F71%29.97 "Hg
* Reported Nov 22 2:53 pm — Dec 7 2:53 pm, Fairfield. Weather by CustomWeather, © 2019

Note: Actual official high and low records may vary slightly from our data, if they occured in-between our weather recording intervals... More about our weather records

Fairfield Weather History for the Previous 24 Hours

Scroll right to see more
 ConditionsComfort  
Time TempWeatherWind HumidityBarometerVisibility
2:53 pm
Sat, Dec 7
60 °FPassing clouds.6 mph44%30.24 "Hg10 mi
1:53 pm59 °FSunny.7 mph46%30.24 "Hg10 mi
12:53 pm58 °FSunny.8 mph50%30.26 "Hg10 mi
11:53 am56 °FSunny.8 mph53%30.28 "Hg10 mi
10:53 am54 °FSunny.12 mph59%30.29 "Hg10 mi
9:53 am50 °FSunny.7 mph68%30.28 "Hg10 mi
8:53 am44 °FSunny.3 mph82%30.28 "Hg10 mi
7:53 am39 °FSunny.3 mph89%30.27 "Hg10 mi
6:53 am39 °FClear.5 mph86%30.26 "Hg10 mi
5:53 am45 °FPassing clouds.5 mph71%30.24 "Hg10 mi
4:53 am44 °FOvercast.3 mph79%30.24 "Hg10 mi
3:53 am44 °FOvercast.No wind79%30.23 "Hg10 mi
2:53 am46 °FOvercast.No wind71%30.22 "Hg10 mi
1:53 am43 °FOvercast.No wind79%30.22 "Hg10 mi
12:53 am43 °FClear.No wind79%30.21 "Hg10 mi
11:53 pm
Fri, Dec 6
45 °FPassing clouds.6 mph71%30.20 "Hg10 mi
10:53 pm49 °FOvercast.No wind61%30.21 "Hg10 mi
9:53 pm48 °FMostly cloudy.5 mph66%30.20 "Hg10 mi
8:53 pm49 °FOvercast.No wind61%30.20 "Hg10 mi
7:53 pm49 °FOvercast.3 mph61%30.19 "Hg10 mi
6:53 pm50 °FLight rain. Overcast.3 mph57%30.18 "Hg10 mi
5:53 pm50 °FPartly cloudy.No wind54%30.17 "Hg10 mi
4:53 pm51 °FMore clouds than sun.3 mph52%30.15 "Hg10 mi
Weather by CustomWeather, © 2019

See weather overview

Advertising